Location: Melbourne
(37.8170°S, 144.9670°E)
Time: 05:31:16
(UTC+11:00)

ISS - Visible Passes

Search period start: 24 February 2018 00:00
Search period end: 06 March 2018 00:00
Orbit: 402 x 407 km, 51.6° (Epoch: 24 February)

Date Brightness Start Highest point End Pass type
(mag) Time Alt. Az. Time Alt. Az. Time Alt. Az.
24 Feb -0.7 22:01:44 10° SW 22:03:38 14° SSW 22:05:32 10° SSE visible
25 Feb -1.2 21:08:36 10° WSW 21:11:10 20° SSW 21:13:45 10° SSE visible
27 Feb -0.8 21:01:56 10° SW 21:03:32 13° SSW 21:05:07 10° S visible
03 Mar -0.6 22:24:41 10° S 22:25:00 11° S 22:25:00 11° S visible
05 Mar -0.9 22:15:52 10° SSW 22:16:47 14° S 22:16:47 14° S visible
